Address 0x131b4e746ca5a5a8be68d2bb5f5a8533a4dd99c1 1

 
Txn Hash Method
Block
From
To
Value [Txn Fee]
0xcf16654f1a877fbffbe082e25ebf83357b05a260cc9d933eab2c7aebb5c548a5Add Recipient34760692021-12-01 2:31:221 hr 16 mins ago0x131b4e746ca5a5a8be68d2bb5f5a8533a4dd99c1OUT 0x191354562297ef98d95dbccc3dcd5a6d455bdb5e0 ETH0.001316118123 ETH
0x17796753646d176b4ff92b75de8862d29adcb230b6251f71d8e1200e694c66b4Remove Recipient34760652021-12-01 2:30:131 hr 18 mins ago0x131b4e746ca5a5a8be68d2bb5f5a8533a4dd99c1OUT 0x191354562297ef98d95dbccc3dcd5a6d455bdb5e0 ETH0.000843770572 ETH
0x0c5bc367d0ac80e620c03d664520bf06b57fc0444a848a0f35b2705ef756cd290xd004f0f734746872021-12-01 1:48:251 hr 59 mins ago0x131b4e746ca5a5a8be68d2bb5f5a8533a4dd99c1OUT 0x908046455c44ecd9e057c1e047e5ae72cb8f6bc80 ETH0.00087037236 ETH
0xf54f397e0bbfd03b0a1ed2292d74bfd5039dcd4fbf8af3687b2d9c6833d2d037Approve34746772021-12-01 1:47:092 hrs 1 min ago0x131b4e746ca5a5a8be68d2bb5f5a8533a4dd99c1OUT 0xdb96f8efd6865644993505318cc08ff9c42fb9ac0 ETH0.001128236778 ETH
0x9fc92cd9d71f910b1586c59bc6226fa37d14f2c7d23ffa04c70015bc13d1c97cDecrease Allowan...34746612021-12-01 1:47:092 hrs 1 min ago0x131b4e746ca5a5a8be68d2bb5f5a8533a4dd99c1OUT 0xdb96f8efd6865644993505318cc08ff9c42fb9ac0 ETH0.000894889591 ETH
0xa58616f60ac1266fc4da6896aae52d0e0ab4198f914ede6cc889fb439a371c11Set Bond Terms34741282021-12-01 1:26:042 hrs 22 mins ago0x131b4e746ca5a5a8be68d2bb5f5a8533a4dd99c1OUT 0xb20543f26f598f094c9147c4c331bb36d411ccbf0 ETH0.001052671955 ETH
0xaf99a9d620649e7dc0a7ed4a64f4b063bb726a8d0c8cf0fb483a37f2c43b96310xd004f0f734718212021-11-30 23:30:244 hrs 17 mins ago0x131b4e746ca5a5a8be68d2bb5f5a8533a4dd99c1OUT 0x908046455c44ecd9e057c1e047e5ae72cb8f6bc80 ETH0.000865211061 ETH
0x54fe5b47f4c19f5d333de3bbc23283c79dbf896478e2e23c718178ce98d12aa9Stake34718152021-11-30 23:30:244 hrs 17 mins ago0x131b4e746ca5a5a8be68d2bb5f5a8533a4dd99c1OUT 0xd80a0186ac95fa975b393335ab5be987f4881fb90 ETH0.000849040128 ETH
0x5a7586ee4c8de9abf3530d88a45cdd3f75496b0b4afd84dae456b21339093ad60xd004f0f734717852021-11-30 23:28:124 hrs 20 mins ago0x131b4e746ca5a5a8be68d2bb5f5a8533a4dd99c1OUT 0x908046455c44ecd9e057c1e047e5ae72cb8f6bc80 ETH0.000858160633 ETH
0xc7d02696334ced6e599362bb91f3be544b0c350a9e10c6bf307ed6c0ce7a5312Approve34717792021-11-30 23:28:124 hrs 20 mins ago0x131b4e746ca5a5a8be68d2bb5f5a8533a4dd99c1OUT 0xdb96f8efd6865644993505318cc08ff9c42fb9ac0 ETH0.001116313982 ETH
0x6383d713eaf133c959b81ee30d537edcf07d9cbf2d48d1b872df0d137d509ebdPush Management34712302021-11-30 22:52:534 hrs 55 mins ago0x131b4e746ca5a5a8be68d2bb5f5a8533a4dd99c1OUT 0xe8e6a534146efdcadb64c4ce78600e5c9e71fc970 ETH0.001039821598 ETH
0x41555b7497ee4b2e8fef3697402587b10cf9dda5a3ff5cfca84e58552e33540fTransfer34703842021-11-30 22:06:105 hrs 42 mins ago0x131b4e746ca5a5a8be68d2bb5f5a8533a4dd99c1OUT0x6468f283f9d71d2dc28020c0dbe4458f3b47a2c61 ETH0.000721286268 ETH
0x9f33d6eb0fd258c44b49aff84a1ac591e5f80c8e7ea89a648051db3f29f0ab55Set Bond Terms34700032021-11-30 21:46:516 hrs 1 min ago0x131b4e746ca5a5a8be68d2bb5f5a8533a4dd99c1OUT 0xb20543f26f598f094c9147c4c331bb36d411ccbf0 ETH0.000765776562 ETH
0x71d633ddc5cd097da877f5cb9d904dce7fc8e9ea45015dea865446d541e38937Set Bond Terms34699092021-11-30 21:41:186 hrs 6 mins ago0x131b4e746ca5a5a8be68d2bb5f5a8533a4dd99c1OUT 0xb20543f26f598f094c9147c4c331bb36d411ccbf0 ETH0.000764236449 ETH
0xe1ca348a564cb0a67b2f1219fc085d950370e3a3cc53974a0d3cb967fdaca767Set Bond Terms34699072021-11-30 21:41:186 hrs 6 mins ago0x131b4e746ca5a5a8be68d2bb5f5a8533a4dd99c1OUT 0xb20543f26f598f094c9147c4c331bb36d411ccbf0 ETH0.000765776562 ETH
0xeaeb6b0cd0a25a205fd23334eee1b873669d8fe5b33443341beaaa5661ac0eb8Set Bond Terms34699002021-11-30 21:41:186 hrs 6 mins ago0x131b4e746ca5a5a8be68d2bb5f5a8533a4dd99c1OUT 0xb20543f26f598f094c9147c4c331bb36d411ccbf0 ETH0.000764236449 ETH
0x7d3713c4676f19045039fd6b67f9dd0fe0c9303de9e9e6dd4a08a0b61438acdbSet Bond Terms34698902021-11-30 21:41:186 hrs 6 mins ago0x131b4e746ca5a5a8be68d2bb5f5a8533a4dd99c1OUT 0xb20543f26f598f094c9147c4c331bb36d411ccbf0 ETH0.000765776562 ETH
0x892a7a32af7b61e0019e32a7f0e8e4ee947d443447f9d6bd6c9137fe2f0919faInitialize Bond ...34696882021-11-30 21:33:136 hrs 15 mins ago0x131b4e746ca5a5a8be68d2bb5f5a8533a4dd99c1OUT 0xb20543f26f598f094c9147c4c331bb36d411ccbf0 ETH0.001742825383 ETH
0x719c50b4d5033aca9b1530076d95b4c6379dc5c997cec061c22dbc53a9e23f64Set Bond Terms34696812021-11-30 21:33:136 hrs 15 mins ago0x131b4e746ca5a5a8be68d2bb5f5a8533a4dd99c1OUT 0xb20543f26f598f094c9147c4c331bb36d411ccbf0 ETH0.000767260874 ETH
0xcb820d884a13403cece737476754bdb09c17a8ed0918ab389e0b7a4d40d1da34Set Bond Terms34696692021-11-30 21:32:496 hrs 15 mins ago0x131b4e746ca5a5a8be68d2bb5f5a8533a4dd99c1OUT 0xb20543f26f598f094c9147c4c331bb36d411ccbf0 ETH0.000988985813 ETH
0xf78574f012e1cf64040f058fb06438a8d686961e830446e23eceb064e8bc24f90x6101006034694392021-11-30 21:19:286 hrs 28 mins ago0x131b4e746ca5a5a8be68d2bb5f5a8533a4dd99c1OUT Contract Creation0 ETH0.105671405773 ETH
0x3f01376aca61ab7da387aa8ccedb7ae716a175d62e20ded38eafe6d61d8534b7Deposit34557172021-11-30 9:38:0118 hrs 10 mins ago0x131b4e746ca5a5a8be68d2bb5f5a8533a4dd99c1OUT 0xe8e6a534146efdcadb64c4ce78600e5c9e71fc970 ETH0.001077965156 ETH
0xc6c4fb3f1bafe1d4032d0368dd246a8bb129e8cafb3b8366728a1140e96a049bApprove34556962021-11-30 9:36:3418 hrs 11 mins ago0x131b4e746ca5a5a8be68d2bb5f5a8533a4dd99c1OUT0x8d9ba570d6cb60c7e3e0f31343efe75ab8e65fb10 ETH0.001043925286 ETH
0x1b82520a6a330b1b2b73760aa85526b48053c72dd067fdd86b3ff1aaea92a51fToggle34556762021-11-30 9:34:3118 hrs 13 mins ago0x131b4e746ca5a5a8be68d2bb5f5a8533a4dd99c1OUT 0xe8e6a534146efdcadb64c4ce78600e5c9e71fc970 ETH0.001278691777 ETH
0xbb9f6993e57c9ba29b08a472845ec8780d50ff785ff7306c0308a35cdf3c00a6Queue34556712021-11-30 9:34:3118 hrs 13 mins ago0x131b4e746ca5a5a8be68d2bb5f5a8533a4dd99c1OUT 0xe8e6a534146efdcadb64c4ce78600e5c9e71fc970 ETH0.001034195556 ETH
[ Download CSV Export 
Parent Txn Hash Block From To Value
Loading

Contract Name:
0 ETH

Compiler Version
0

Optimization Enabled:
0 ETH

Other Settings:
-NA-
Block Transaction Gas Used Reward
Age Block Fee Address BC Fee Address Voting Power Jailed Incoming
Block Uncle Number Difficulty Gas Used Reward
Loading
Loading
Make sure to use the "Vote Down" button for any spammy posts, and the "Vote Up" for interesting conversations.